Time,TemperatureF,DewpointF,PressureIn,WindDirection,WindDirectionDegrees,WindSpeedMPH,WindSpeedGustMPH,Humidity,HourlyPrecipIn,Conditions,Clouds,dailyrainin,SoftwareType,DateUTC
2013-03-22 00:02:00,28.0,23.2,30.04,South,170,0.0,5.0,82,0.00,,,0.00,meteohub,2013-03-21 23:02:00,
2013-03-22 00:07:00,28.0,23.2,30.04,South,184,1.0,5.0,82,0.00,,,0.00,meteohub,2013-03-21 23:07:00,
2013-03-22 00:17:00,28.0,23.2,30.04,SSW,194,0.0,6.0,82,0.00,,,0.00,meteohub,2013-03-21 23:17:00,
2013-03-22 00:22:00,28.0,23.2,30.04,South,170,1.0,6.0,82,0.00,,,0.00,meteohub,2013-03-21 23:22:00,
2013-03-22 00:27:00,27.9,23.0,30.04,South,178,1.0,6.0,82,0.00,,,0.00,meteohub,2013-03-21 23:27:00,
2013-03-22 00:37:00,27.9,22.8,30.04,South,180,3.0,7.0,81,0.00,,,0.00,meteohub,2013-03-21 23:37:00,
2013-03-22 00:42:00,27.9,22.8,30.04,SSE,160,0.0,7.0,81,0.00,,,0.00,meteohub,2013-03-21 23:42:00,
2013-03-22 00:47:00,27.9,22.8,30.04,South,180,1.0,7.0,81,0.00,,,0.00,meteohub,2013-03-21 23:47:00,
2013-03-22 00:52:00,27.7,22.6,30.04,South,171,1.0,7.0,81,0.00,,,0.00,meteohub,2013-03-21 23:52:00,
2013-03-22 01:02:00,27.7,22.6,30.04,SSE,163,4.0,4.0,81,0.00,,,0.00,meteohub,2013-03-22 00:02:00,
2013-03-22 01:12:00,27.5,22.5,30.04,South,176,0.0,6.0,81,0.00,,,0.00,meteohub,2013-03-22 00:12:00,
2013-03-22 01:17:00,27.3,22.3,30.04,South,184,1.0,8.0,81,0.00,,,0.00,meteohub,2013-03-22 00:17:00,
2013-03-22 01:27:00,27.3,22.6,30.05,South,169,1.0,8.0,82,0.00,,,0.00,meteohub,2013-03-22 00:27:00,
2013-03-22 01:32:00,27.3,22.6,30.04,SSE,161,2.0,6.0,82,0.00,,,0.00,meteohub,2013-03-22 00:32:00,
2013-03-22 01:37:00,27.5,22.8,30.04,South,173,2.0,6.0,82,0.00,,,0.00,meteohub,2013-03-22 00:37:00,
2013-03-22 01:47:00,27.7,22.6,30.04,SSE,161,1.0,6.0,81,0.00,,,0.00,meteohub,2013-03-22 00:47:00,
2013-03-22 01:57:00,27.7,22.6,30.04,SSE,168,1.0,7.0,81,0.00,,,0.00,meteohub,2013-03-22 00:57:00,
2013-03-22 02:02:00,27.7,22.6,30.04,South,185,0.0,7.0,81,0.00,,,0.00,meteohub,2013-03-22 01:02:00,
2013-03-22 02:12:00,27.9,22.5,30.04,SSW,199,1.0,7.0,80,0.00,,,0.00,meteohub,2013-03-22 01:12:00,
2013-03-22 02:17:00,27.9,22.5,30.05,SSE,167,1.0,7.0,80,0.00,,,0.00,meteohub,2013-03-22 01:17:00,
2013-03-22 02:22:00,28.0,22.6,30.04,South,188,2.0,7.0,80,0.00,,,0.00,meteohub,2013-03-22 01:22:00,
2013-03-22 02:27:00,28.0,22.6,30.04,South,179,2.0,7.0,80,0.00,,,0.00,meteohub,2013-03-22 01:27:00,
2013-03-22 02:32:00,28.0,22.6,30.04,South,182,0.0,7.0,80,0.00,,,0.00,meteohub,2013-03-22 01:32:00,
2013-03-22 02:37:00,28.0,22.5,30.04,SSE,161,4.0,7.0,79,0.00,,,0.00,meteohub,2013-03-22 01:37:00,
2013-03-22 02:42:00,28.0,22.5,30.04,SSE,168,2.0,11.0,79,0.00,,,0.00,meteohub,2013-03-22 01:42:00,
2013-03-22 02:52:00,27.9,22.3,30.04,SSE,165,3.0,11.0,79,0.00,,,0.00,meteohub,2013-03-22 01:52:00,
2013-03-22 03:02:00,27.7,22.3,30.04,SSE,167,0.0,4.0,80,0.00,,,0.00,meteohub,2013-03-22 02:02:00,
2013-03-22 03:12:00,27.3,21.9,30.03,South,171,0.0,4.0,80,0.00,,,0.00,meteohub,2013-03-22 02:12:00,
2013-03-22 03:17:00,27.1,22.1,30.03,SSE,167,2.0,4.0,81,0.00,,,0.00,meteohub,2013-03-22 02:17:00,
2013-03-22 03:22:00,27.1,22.1,30.03,SSE,164,0.0,4.0,81,0.00,,,0.00,meteohub,2013-03-22 02:22:00,
2013-03-22 03:27:00,27.1,22.1,30.03,South,169,0.0,4.0,81,0.00,,,0.00,meteohub,2013-03-22 02:27:00,
2013-03-22 03:32:00,27.0,21.9,30.04,SSE,164,1.0,4.0,81,0.00,,,0.00,meteohub,2013-03-22 02:32:00,
2013-03-22 03:37:00,27.0,22.3,30.04,SSE,158,2.0,4.0,82,0.00,,,0.00,meteohub,2013-03-22 02:37:00,
2013-03-22 03:47:00,27.1,22.5,30.04,SSE,167,4.0,6.0,82,0.00,,,0.00,meteohub,2013-03-22 02:47:00,
2013-03-22 03:57:00,27.3,22.6,30.04,South,171,1.0,6.0,82,0.00,,,0.00,meteohub,2013-03-22 02:57:00,
2013-03-22 04:07:00,27.7,23.2,30.04,South,173,7.0,7.0,83,0.00,,,0.00,meteohub,2013-03-22 03:07:00,
2013-03-22 04:12:00,27.7,23.5,30.04,SSE,159,3.0,8.0,84,0.00,,,0.00,meteohub,2013-03-22 03:12:00,
2013-03-22 04:17:00,27.7,23.5,30.04,South,171,2.0,8.0,84,0.00,,,0.00,meteohub,2013-03-22 03:17:00,
2013-03-22 04:22:00,27.5,23.5,30.04,SSE,164,5.0,8.0,85,0.00,,,0.00,meteohub,2013-03-22 03:22:00,
2013-03-22 04:27:00,27.5,23.5,30.04,SSE,152,6.0,9.0,85,0.00,,,0.00,meteohub,2013-03-22 03:27:00,
2013-03-22 04:32:00,27.5,23.5,30.04,SSE,164,6.0,9.0,85,0.00,,,0.00,meteohub,2013-03-22 03:32:00,
2013-03-22 04:42:00,27.3,23.4,30.04,SSE,167,4.0,8.0,85,0.00,,,0.00,meteohub,2013-03-22 03:42:00,
2013-03-22 04:47:00,27.3,23.2,30.04,South,178,2.0,9.0,84,0.00,,,0.00,meteohub,2013-03-22 03:47:00,
2013-03-22 04:52:00,27.5,23.0,30.04,SSE,166,3.0,9.0,83,0.00,,,0.00,meteohub,2013-03-22 03:52:00,
2013-03-22 05:02:00,27.7,22.8,30.03,SSE,161,4.0,6.0,82,0.00,,,0.00,meteohub,2013-03-22 04:02:00,
2013-03-22 05:07:00,27.7,22.6,30.03,SSE,159,5.0,6.0,81,0.00,,,0.00,meteohub,2013-03-22 04:07:00,
2013-03-22 05:12:00,27.7,22.6,30.04,SSW,200,2.0,6.0,81,0.00,,,0.00,meteohub,2013-03-22 04:12:00,
2013-03-22 05:17:00,27.5,22.5,30.04,SSW,205,1.0,6.0,81,0.00,,,0.00,meteohub,2013-03-22 04:17:00,
2013-03-22 05:22:00,27.3,22.3,30.04,SSE,154,2.0,7.0,81,0.00,,,0.00,meteohub,2013-03-22 04:22:00,
2013-03-22 05:27:00,27.3,22.3,30.04,SSE,155,2.0,9.0,81,0.00,,,0.00,meteohub,2013-03-22 04:27:00,
2013-03-22 05:32:00,27.3,22.6,30.04,South,169,1.0,9.0,82,0.00,,,0.00,meteohub,2013-03-22 04:32:00,
2013-03-22 05:37:00,27.1,22.5,30.04,SSE,159,5.0,9.0,82,0.00,,,0.00,meteohub,2013-03-22 04:37:00,
2013-03-22 05:42:00,27.1,22.6,30.04,SSW,207,0.0,9.0,83,0.00,,,0.00,meteohub,2013-03-22 04:42:00,
2013-03-22 05:47:00,27.1,22.6,30.04,SSE,157,6.0,7.0,83,0.00,,,0.00,meteohub,2013-03-22 04:47:00,
2013-03-22 05:52:00,27.1,23.0,30.05,SSE,157,2.0,8.0,84,0.00,,,0.00,meteohub,2013-03-22 04:52:00,
2013-03-22 05:57:00,27.0,22.8,30.05,South,185,4.0,8.0,84,0.00,,,0.00,meteohub,2013-03-22 04:57:00,
2013-03-22 06:02:00,27.0,23.0,30.05,South,173,2.0,9.0,85,0.00,,,0.00,meteohub,2013-03-22 05:02:00,
2013-03-22 06:07:00,27.0,23.0,30.05,SSW,192,2.0,9.0,85,0.00,,,0.00,meteohub,2013-03-22 05:07:00,
2013-03-22 06:12:00,26.8,23.2,30.05,South,180,1.0,9.0,86,0.00,,,0.00,meteohub,2013-03-22 05:12:00,
2013-03-22 06:17:00,26.8,23.2,30.05,SSE,157,4.0,8.0,86,0.00,,,0.00,meteohub,2013-03-22 05:17:00,
2013-03-22 06:27:00,26.6,23.0,30.05,SSE,152,5.0,7.0,86,0.00,,,0.00,meteohub,2013-03-22 05:27:00,
2013-03-22 06:32:00,26.6,23.2,30.05,South,188,2.0,7.0,87,0.00,,,0.00,meteohub,2013-03-22 05:32:00,
2013-03-22 06:37:00,26.6,23.2,30.05,SSE,155,1.0,7.0,87,0.00,,,0.00,meteohub,2013-03-22 05:37:00,
2013-03-22 06:47:00,26.4,22.8,30.05,South,185,0.0,6.0,86,0.00,,,0.00,meteohub,2013-03-22 05:47:00,
2013-03-22 06:52:00,26.4,23.0,30.06,South,176,1.0,7.0,87,0.00,,,0.00,meteohub,2013-03-22 05:52:00,
2013-03-22 06:57:00,26.4,22.8,30.06,SSE,154,4.0,7.0,86,0.00,,,0.00,meteohub,2013-03-22 05:57:00,
2013-03-22 07:02:00,26.6,23.0,30.06,South,185,0.0,6.0,86,0.00,,,0.00,meteohub,2013-03-22 06:02:00,
2013-03-22 07:12:00,27.0,23.4,30.06,South,185,4.0,8.0,86,0.00,,,0.00,meteohub,2013-03-22 06:12:00,
2013-03-22 07:17:00,27.0,23.0,30.06,South,173,1.0,8.0,85,0.00,,,0.00,meteohub,2013-03-22 06:17:00,
2013-03-22 07:27:00,27.0,22.8,30.06,SSE,153,6.0,9.0,84,0.00,,,0.00,meteohub,2013-03-22 06:27:00,
2013-03-22 07:32:00,26.8,22.8,30.06,South,179,0.0,9.0,85,0.00,,,0.00,meteohub,2013-03-22 06:32:00,
2013-03-22 07:37:00,26.8,22.8,30.06,SW,221,2.0,9.0,85,0.00,,,0.00,meteohub,2013-03-22 06:37:00,
2013-03-22 07:42:00,26.8,22.8,30.06,SW,223,2.0,9.0,85,0.00,,,0.00,meteohub,2013-03-22 06:42:00,
2013-03-22 07:47:00,27.0,23.4,30.07,SSE,163,7.0,9.0,86,0.00,,,0.00,meteohub,2013-03-22 06:47:00,
2013-03-22 07:57:00,26.8,23.4,30.07,South,175,3.0,9.0,87,0.00,,,0.00,meteohub,2013-03-22 06:57:00,
2013-03-22 08:02:00,26.8,23.4,30.07,SSE,164,1.0,9.0,87,0.00,,,0.00,meteohub,2013-03-22 07:02:00,
2013-03-22 08:07:00,26.8,23.7,30.07,SSE,163,2.0,9.0,88,0.00,,,0.00,meteohub,2013-03-22 07:07:00,
2013-03-22 08:17:00,26.8,23.7,30.07,SSE,159,2.0,9.0,88,0.00,,,0.00,meteohub,2013-03-22 07:17:00,
2013-03-22 08:22:00,26.8,23.7,30.07,South,187,3.0,9.0,88,0.00,,,0.00,meteohub,2013-03-22 07:22:00,
2013-03-22 08:27:00,26.8,23.4,30.07,SW,223,2.0,9.0,87,0.00,,,0.00,meteohub,2013-03-22 07:27:00,
2013-03-22 08:32:00,27.0,23.5,30.07,SSE,158,2.0,8.0,87,0.00,,,0.00,meteohub,2013-03-22 07:32:00,
2013-03-22 08:37:00,26.8,23.2,30.07,SW,219,1.0,8.0,86,0.00,,,0.00,meteohub,2013-03-22 07:37:00,
2013-03-22 08:42:00,27.0,23.0,30.07,SW,223,1.0,6.0,85,0.00,,,0.00,meteohub,2013-03-22 07:42:00,
2013-03-22 08:47:00,27.0,23.4,30.07,SW,223,0.0,6.0,86,0.00,,,0.00,meteohub,2013-03-22 07:47:00,
2013-03-22 08:52:00,27.0,23.0,30.07,South,178,0.0,6.0,85,0.00,,,0.00,meteohub,2013-03-22 07:52:00,
2013-03-22 09:02:00,27.0,22.8,30.07,SSW,212,0.0,6.0,84,0.00,,,0.00,meteohub,2013-03-22 08:02:00,
2013-03-22 09:07:00,27.0,22.8,30.08,South,181,2.0,6.0,84,0.00,,,0.00,meteohub,2013-03-22 08:07:00,
2013-03-22 09:12:00,27.1,23.0,30.08,South,173,4.0,6.0,84,0.00,,,0.00,meteohub,2013-03-22 08:12:00,
2013-03-22 09:22:00,27.1,22.6,30.08,SSW,192,1.0,6.0,83,0.00,,,0.00,meteohub,2013-03-22 08:22:00,
2013-03-22 09:27:00,27.1,22.6,30.08,SSE,167,2.0,6.0,83,0.00,,,0.00,meteohub,2013-03-22 08:27:00,
2013-03-22 09:32:00,27.1,22.6,30.08,South,184,3.0,6.0,83,0.00,,,0.00,meteohub,2013-03-22 08:32:00,
2013-03-22 09:37:00,27.1,22.6,30.08,SSE,153,7.0,7.0,83,0.00,,,0.00,meteohub,2013-03-22 08:37:00,
2013-03-22 09:42:00,27.0,22.5,30.08,SE,145,3.0,13.0,83,0.00,,,0.00,meteohub,2013-03-22 08:42:00,
2013-03-22 09:52:00,27.0,22.8,30.08,South,177,2.0,13.0,84,0.00,,,0.00,meteohub,2013-03-22 08:52:00,
2013-03-22 09:57:00,27.0,22.8,30.08,SSE,164,3.0,10.0,84,0.00,,,0.00,meteohub,2013-03-22 08:57:00,
2013-03-22 10:02:00,27.0,22.8,30.08,SSE,158,7.0,10.0,84,0.00,,,0.00,meteohub,2013-03-22 09:02:00,
2013-03-22 10:12:00,27.1,23.2,30.08,SSW,194,3.0,9.0,85,0.00,,,0.00,meteohub,2013-03-22 09:12:00,
2013-03-22 10:22:00,27.5,23.5,30.08,SSE,161,5.0,6.0,85,0.00,,,0.00,meteohub,2013-03-22 09:22:00,
2013-03-22 10:27:00,27.7,23.7,30.08,SSE,163,8.0,8.0,85,0.00,,,0.00,meteohub,2013-03-22 09:27:00,
2013-03-22 10:32:00,27.9,23.4,30.08,South,173,3.0,9.0,83,0.00,,,0.00,meteohub,2013-03-22 09:32:00,
2013-03-22 10:42:00,28.2,23.2,30.08,SSE,154,5.0,9.0,81,0.00,,,0.00,meteohub,2013-03-22 09:42:00,
2013-03-22 10:47:00,28.2,23.2,30.07,South,179,1.0,7.0,81,0.00,,,0.00,meteohub,2013-03-22 09:47:00,
2013-03-22 10:52:00,28.6,23.2,30.07,SE,142,7.0,7.0,80,0.00,,,0.00,meteohub,2013-03-22 09:52:00,
2013-03-22 10:57:00,28.8,23.0,30.07,South,190,2.0,10.0,79,0.00,,,0.00,meteohub,2013-03-22 09:57:00,
2013-03-22 11:02:00,28.8,22.5,30.07,SSE,165,11.0,11.0,77,0.00,,,0.00,meteohub,2013-03-22 10:02:00,
2013-03-22 11:12:00,28.4,21.2,30.07,SSE,156,4.0,12.0,74,0.00,,,0.00,meteohub,2013-03-22 10:12:00,
2013-03-22 11:17:00,28.6,21.0,30.07,SSE,159,7.0,12.0,73,0.00,,,0.00,meteohub,2013-03-22 10:17:00,
2013-03-22 11:27:00,28.9,21.0,30.07,SSE,165,5.0,9.0,72,0.00,,,0.00,meteohub,2013-03-22 10:27:00,
2013-03-22 11:32:00,28.9,21.4,30.07,SSE,148,5.0,11.0,73,0.00,,,0.00,meteohub,2013-03-22 10:32:00,
2013-03-22 11:37:00,28.9,21.4,30.07,South,187,1.0,11.0,73,0.00,,,0.00,meteohub,2013-03-22 10:37:00,
2013-03-22 11:42:00,28.9,21.7,30.07,SSE,163,4.0,11.0,74,0.00,,,0.00,meteohub,2013-03-22 10:42:00,
2013-03-22 11:52:00,28.6,21.7,30.07,South,181,5.0,9.0,75,0.00,,,0.00,meteohub,2013-03-22 10:52:00,
2013-03-22 12:02:00,28.6,21.9,30.07,SSE,167,3.0,8.0,76,0.00,,,0.00,meteohub,2013-03-22 11:02:00,
2013-03-22 12:12:00,28.8,22.1,30.07,South,176,1.0,9.0,76,0.00,,,0.00,meteohub,2013-03-22 11:12:00,
2013-03-22 12:17:00,28.8,21.9,30.07,SSE,168,4.0,9.0,75,0.00,,,0.00,meteohub,2013-03-22 11:17:00,
2013-03-22 12:27:00,28.4,22.5,30.07,SSW,205,0.0,10.0,78,0.00,,,0.00,meteohub,2013-03-22 11:27:00,
2013-03-22 12:32:00,28.2,22.6,30.08,SSE,157,4.0,10.0,79,0.00,,,0.00,meteohub,2013-03-22 11:32:00,
2013-03-22 12:42:00,28.2,22.3,30.07,SSE,164,5.0,12.0,78,0.00,,,0.00,meteohub,2013-03-22 11:42:00,
2013-03-22 12:47:00,28.6,22.6,30.07,SSW,205,0.0,12.0,78,0.00,,,0.00,meteohub,2013-03-22 11:47:00,
2013-03-22 12:57:00,28.8,22.1,30.07,South,170,1.0,7.0,76,0.00,,,0.00,meteohub,2013-03-22 11:57:00,
2013-03-22 13:07:00,29.1,22.8,30.07,South,173,5.0,11.0,77,0.00,,,0.00,meteohub,2013-03-22 12:07:00,
2013-03-22 13:12:00,29.1,22.5,30.07,WSW,254,2.0,7.0,76,0.00,,,0.00,meteohub,2013-03-22 12:12:00,
2013-03-22 13:22:00,29.1,21.6,30.06,SSE,163,7.0,7.0,73,0.00,,,0.00,meteohub,2013-03-22 12:22:00,
2013-03-22 13:27:00,29.1,21.2,30.06,SW,215,2.0,9.0,72,0.00,,,0.00,meteohub,2013-03-22 12:27:00,
2013-03-22 13:32:00,29.5,22.3,30.06,South,171,5.0,9.0,74,0.00,,,0.00,meteohub,2013-03-22 12:32:00,
2013-03-22 13:42:00,29.5,21.6,30.06,SSW,211,4.0,9.0,72,0.00,,,0.00,meteohub,2013-03-22 12:42:00,
2013-03-22 13:47:00,27.5,21.0,30.06,SSE,152,5.0,9.0,76,0.00,,,0.00,meteohub,2013-03-22 12:47:00,
2013-03-22 13:57:00,27.3,20.8,30.06,SW,220,2.0,8.0,76,0.00,,,0.00,meteohub,2013-03-22 12:57:00,
2013-03-22 14:02:00,27.3,21.0,30.06,SSE,161,2.0,8.0,77,0.00,,,0.00,meteohub,2013-03-22 13:02:00,
2013-03-22 14:07:00,27.5,21.6,30.06,WNW,295,2.0,8.0,78,0.00,,,0.00,meteohub,2013-03-22 13:07:00,
2013-03-22 14:17:00,29.3,22.3,30.06,SSW,195,1.0,7.0,75,0.00,,,0.00,meteohub,2013-03-22 13:17:00,
2013-03-22 14:22:00,29.5,22.8,30.05,SSE,165,5.0,8.0,76,0.00,,,0.00,meteohub,2013-03-22 13:22:00,
2013-03-22 14:27:00,29.5,22.8,30.05,SSE,158,3.0,11.0,76,0.00,,,0.00,meteohub,2013-03-22 13:27:00,
2013-03-22 14:37:00,29.3,23.0,30.06,South,171,5.0,11.0,77,0.00,,,0.00,meteohub,2013-03-22 13:37:00,
2013-03-22 14:42:00,29.3,23.4,30.06,NW,306,3.0,11.0,78,0.00,,,0.00,meteohub,2013-03-22 13:42:00,
2013-03-22 14:52:00,29.5,23.7,30.06,SSE,157,6.0,9.0,79,0.00,,,0.00,meteohub,2013-03-22 13:52:00,
2013-03-22 14:57:00,29.1,23.4,30.06,SSE,168,7.0,9.0,79,0.00,,,0.00,meteohub,2013-03-22 13:57:00,
2013-03-22 15:07:00,28.9,23.5,30.06,South,185,4.0,11.0,80,0.00,,,0.00,meteohub,2013-03-22 14:07:00,
2013-03-22 15:12:00,28.8,23.7,30.06,SSW,205,2.0,11.0,81,0.00,,,0.00,meteohub,2013-03-22 14:12:00,
2013-03-22 15:17:00,28.9,23.9,30.06,SSE,162,2.0,8.0,81,0.00,,,0.00,meteohub,2013-03-22 14:17:00,
2013-03-22 15:22:00,28.9,23.9,30.06,SSE,163,4.0,8.0,81,0.00,,,0.00,meteohub,2013-03-22 14:22:00,
2013-03-22 15:32:00,28.8,23.7,30.06,SW,220,1.0,12.0,81,0.00,,,0.00,meteohub,2013-03-22 14:32:00,
2013-03-22 15:42:00,28.9,24.1,30.06,SSE,165,1.0,12.0,82,0.00,,,0.00,meteohub,2013-03-22 14:42:00,
2013-03-22 15:52:00,28.9,24.1,30.06,SSW,202,2.0,9.0,82,0.00,,,0.00,meteohub,2013-03-22 14:52:00,
2013-03-22 15:57:00,28.8,23.9,30.06,SW,217,2.0,9.0,82,0.00,,,0.00,meteohub,2013-03-22 14:57:00,
2013-03-22 16:02:00,28.8,23.9,30.06,NNW,333,1.0,9.0,82,0.00,,,0.00,meteohub,2013-03-22 15:02:00,
2013-03-22 16:12:00,28.9,24.1,30.06,SSE,155,4.0,6.0,82,0.00,,,0.00,meteohub,2013-03-22 15:12:00,
2013-03-22 16:17:00,28.9,23.9,30.06,SSE,156,6.0,9.0,81,0.00,,,0.00,meteohub,2013-03-22 15:17:00,
2013-03-22 16:22:00,28.9,23.5,30.06,SW,223,1.0,9.0,80,0.00,,,0.00,meteohub,2013-03-22 15:22:00,
2013-03-22 16:27:00,29.1,23.7,30.06,South,171,0.0,9.0,80,0.00,,,0.00,meteohub,2013-03-22 15:27:00,
2013-03-22 16:32:00,29.3,23.9,30.07,SSW,199,5.0,9.0,80,0.00,,,0.00,meteohub,2013-03-22 15:32:00,
2013-03-22 16:37:00,29.3,23.9,30.06,SSE,153,5.0,6.0,80,0.00,,,0.00,meteohub,2013-03-22 15:37:00,
2013-03-22 16:42:00,29.1,23.7,30.07,South,178,0.0,6.0,80,0.00,,,0.00,meteohub,2013-03-22 15:42:00,
2013-03-22 16:47:00,28.9,23.9,30.07,South,173,0.0,8.0,81,0.00,,,0.00,meteohub,2013-03-22 15:47:00,
2013-03-22 16:52:00,28.9,24.1,30.06,South,182,6.0,8.0,82,0.00,,,0.00,meteohub,2013-03-22 15:52:00,
2013-03-22 16:57:00,28.9,24.1,30.06,South,185,1.0,7.0,82,0.00,,,0.00,meteohub,2013-03-22 15:57:00,
2013-03-22 17:02:00,28.9,24.4,30.06,SSW,204,1.0,11.0,83,0.00,,,0.00,meteohub,2013-03-22 16:02:00,
2013-03-22 17:07:00,28.8,24.3,30.07,SSE,153,6.0,11.0,83,0.00,,,0.00,meteohub,2013-03-22 16:07:00,
2013-03-22 17:12:00,28.8,24.3,30.06,SSW,208,4.0,11.0,83,0.00,,,0.00,meteohub,2013-03-22 16:12:00,
2013-03-22 17:17:00,28.6,24.1,30.06,SW,234,2.0,11.0,83,0.00,,,0.00,meteohub,2013-03-22 16:17:00,
2013-03-22 17:27:00,28.6,24.4,30.06,SSW,192,6.0,7.0,84,0.00,,,0.00,meteohub,2013-03-22 16:27:00,
2013-03-22 17:32:00,28.6,24.4,30.06,South,185,1.0,7.0,84,0.00,,,0.00,meteohub,2013-03-22 16:32:00,
2013-03-22 17:37:00,28.6,24.6,30.06,SSE,161,1.0,8.0,85,0.00,,,0.00,meteohub,2013-03-22 16:37:00,
2013-03-22 17:47:00,28.4,24.8,30.07,South,186,0.0,9.0,86,0.00,,,0.00,meteohub,2013-03-22 16:47:00,
2013-03-22 17:52:00,28.2,24.8,30.07,SSW,211,2.0,9.0,87,0.00,,,0.00,meteohub,2013-03-22 16:52:00,
2013-03-22 17:57:00,28.2,24.8,30.07,SSE,168,2.0,9.0,87,0.00,,,0.00,meteohub,2013-03-22 16:57:00,
2013-03-22 18:07:00,28.2,24.8,30.07,South,177,0.0,6.0,87,0.00,,,0.00,meteohub,2013-03-22 17:07:00,
2013-03-22 18:12:00,28.0,24.6,30.07,SSW,213,1.0,6.0,87,0.00,,,0.00,meteohub,2013-03-22 17:12:00,
2013-03-22 18:17:00,28.0,24.6,30.08,SSW,192,0.0,5.0,87,0.00,,,0.00,meteohub,2013-03-22 17:17:00,
2013-03-22 18:27:00,28.0,25.0,30.08,SSW,198,0.0,6.0,88,0.00,,,0.00,meteohub,2013-03-22 17:27:00,
2013-03-22 18:32:00,28.0,25.0,30.08,SSW,196,0.0,6.0,88,0.00,,,0.00,meteohub,2013-03-22 17:32:00,
2013-03-22 18:37:00,28.0,25.2,30.08,NNE,28,5.0,6.0,89,0.00,,,0.00,meteohub,2013-03-22 17:37:00,
2013-03-22 18:42:00,28.0,25.0,30.08,SSW,195,1.0,7.0,88,0.00,,,0.00,meteohub,2013-03-22 17:42:00,
2013-03-22 18:47:00,27.9,24.4,30.08,WNW,303,2.0,7.0,87,0.00,,,0.00,meteohub,2013-03-22 17:47:00,
2013-03-22 18:52:00,27.9,24.4,30.08,South,185,2.0,7.0,87,0.00,,,0.00,meteohub,2013-03-22 17:52:00,
2013-03-22 19:02:00,27.9,24.4,30.08,NNW,337,5.0,6.0,87,0.00,,,0.00,meteohub,2013-03-22 18:02:00,
2013-03-22 19:07:00,27.9,24.4,30.08,NNE,15,2.0,6.0,87,0.00,,,0.00,meteohub,2013-03-22 18:07:00,
2013-03-22 19:12:00,27.9,24.4,30.08,North,0,6.0,7.0,87,0.00,,,0.00,meteohub,2013-03-22 18:12:00,
2013-03-22 19:22:00,27.9,24.4,30.09,WSW,242,1.0,7.0,87,0.00,,,0.00,meteohub,2013-03-22 18:22:00,
2013-03-22 19:27:00,27.7,24.3,30.09,SSW,196,2.0,7.0,87,0.00,,,0.00,meteohub,2013-03-22 18:27:00,
2013-03-22 19:32:00,27.7,23.7,30.09,South,180,4.0,7.0,85,0.00,,,0.00,meteohub,2013-03-22 18:32:00,
2013-03-22 19:37:00,27.7,23.2,30.09,South,178,2.0,8.0,83,0.00,,,0.00,meteohub,2013-03-22 18:37:00,
2013-03-22 19:42:00,27.7,22.6,30.09,South,178,2.0,8.0,81,0.00,,,0.00,meteohub,2013-03-22 18:42:00,
2013-03-22 19:52:00,27.7,22.3,30.09,NE,55,1.0,6.0,80,0.00,,,0.00,meteohub,2013-03-22 18:52:00,
2013-03-22 19:57:00,27.7,21.4,30.09,South,187,1.0,5.0,77,0.00,,,0.00,meteohub,2013-03-22 18:57:00,
2013-03-22 20:07:00,27.7,22.1,30.09,SSE,155,1.0,5.0,79,0.00,,,0.00,meteohub,2013-03-22 19:07:00,
2013-03-22 20:17:00,27.7,22.3,30.10,SSE,148,1.0,6.0,80,0.00,,,0.00,meteohub,2013-03-22 19:17:00,
2013-03-22 20:22:00,27.7,22.3,30.10,SSW,207,3.0,6.0,80,0.00,,,0.00,meteohub,2013-03-22 19:22:00,
2013-03-22 20:27:00,27.5,21.6,30.10,South,179,0.0,5.0,78,0.00,,,0.00,meteohub,2013-03-22 19:27:00,
2013-03-22 20:37:00,27.3,21.4,30.10,NE,37,0.0,5.0,78,0.00,,,0.00,meteohub,2013-03-22 19:37:00,
2013-03-22 20:42:00,27.3,21.4,30.10,SW,229,0.0,7.0,78,0.00,,,0.00,meteohub,2013-03-22 19:42:00,
2013-03-22 20:52:00,27.1,21.6,30.09,SW,217,5.0,9.0,79,0.00,,,0.00,meteohub,2013-03-22 19:52:00,
2013-03-22 20:57:00,27.1,21.7,30.09,North,0,2.0,9.0,80,0.00,,,0.00,meteohub,2013-03-22 19:57:00,
2013-03-22 21:02:00,27.1,21.7,30.09,South,175,0.0,9.0,80,0.00,,,0.00,meteohub,2013-03-22 20:02:00,
2013-03-22 21:12:00,27.0,22.3,30.09,SSW,195,1.0,6.0,82,0.00,,,0.00,meteohub,2013-03-22 20:12:00,
2013-03-22 21:17:00,27.0,22.3,30.09,SSE,157,2.0,6.0,82,0.00,,,0.00,meteohub,2013-03-22 20:17:00,
2013-03-22 21:22:00,27.0,22.5,30.09,SSE,159,3.0,6.0,83,0.00,,,0.00,meteohub,2013-03-22 20:22:00,
2013-03-22 21:27:00,27.0,22.5,30.09,SSW,205,1.0,6.0,83,0.00,,,0.00,meteohub,2013-03-22 20:27:00,
2013-03-22 21:37:00,26.8,22.6,30.09,South,191,2.0,6.0,84,0.00,,,0.00,meteohub,2013-03-22 20:37:00,
2013-03-22 21:42:00,26.8,22.6,30.09,South,178,1.0,6.0,84,0.00,,,0.00,meteohub,2013-03-22 20:42:00,
2013-03-22 21:52:00,26.8,22.8,30.09,North,11,3.0,6.0,85,0.00,,,0.00,meteohub,2013-03-22 20:52:00,
2013-03-22 22:02:00,26.6,22.6,30.10,NNW,336,0.0,6.0,85,0.00,,,0.00,meteohub,2013-03-22 21:02:00,
2013-03-22 22:12:00,26.8,22.8,30.09,SW,217,0.0,5.0,85,0.00,,,0.00,meteohub,2013-03-22 21:12:00,
2013-03-22 22:17:00,26.8,22.8,30.09,SW,215,0.0,5.0,85,0.00,,,0.00,meteohub,2013-03-22 21:17:00,
2013-03-22 22:27:00,26.8,23.2,30.09,SW,224,0.0,4.0,86,0.00,,,0.00,meteohub,2013-03-22 21:27:00,
2013-03-22 22:32:00,26.6,23.0,30.09,SSW,198,0.0,5.0,86,0.00,,,0.00,meteohub,2013-03-22 21:32:00,
2013-03-22 22:37:00,26.6,23.0,30.09,SW,214,0.0,5.0,86,0.00,,,0.00,meteohub,2013-03-22 21:37:00,
2013-03-22 22:47:00,26.6,22.6,30.09,SW,227,2.0,4.0,85,0.00,,,0.00,meteohub,2013-03-22 21:47:00,
2013-03-22 22:52:00,26.4,22.5,30.09,West,275,0.0,4.0,85,0.00,,,0.00,meteohub,2013-03-22 21:52:00,
2013-03-22 23:02:00,26.4,22.8,30.09,SSW,201,1.0,4.0,86,0.00,,,0.00,meteohub,2013-03-22 22:02:00,
2013-03-22 23:07:00,26.4,22.8,30.09,SW,216,0.0,4.0,86,0.00,,,0.00,meteohub,2013-03-22 22:07:00,
2013-03-22 23:12:00,26.4,22.8,30.09,SSE,157,2.0,5.0,86,0.00,,,0.00,meteohub,2013-03-22 22:12:00,
2013-03-22 23:17:00,26.4,22.8,30.09,South,186,1.0,5.0,86,0.00,,,0.00,meteohub,2013-03-22 22:17:00,
2013-03-22 23:22:00,26.4,23.0,30.09,SE,128,0.0,5.0,87,0.00,,,0.00,meteohub,2013-03-22 22:22:00,
2013-03-22 23:32:00,26.4,23.0,30.09,NNE,19,0.0,4.0,87,0.00,,,0.00,meteohub,2013-03-22 22:32:00,
2013-03-22 23:37:00,26.4,23.0,30.09,SSW,211,0.0,5.0,87,0.00,,,0.00,meteohub,2013-03-22 22:37:00,
2013-03-22 23:42:00,26.4,23.0,30.09,NW,321,0.0,5.0,87,0.00,,,0.00,meteohub,2013-03-22 22:42:00,
2013-03-22 23:47:00,26.2,23.2,30.09,North,351,0.0,5.0,88,0.00,,,0.00,meteohub,2013-03-22 22:47:00,
2013-03-22 23:57:00,26.2,23.2,30.09,South,182,0.0,5.0,88,0.00,,,0.00,meteohub,2013-03-22 22:57:00,